Terminal Aerodrome Forecast
Issued by NWS

Home | Current Version | Previous Version | Text Only | Print | Product List | Glossary On
Versions: 1 2 3 4 5 6 7 8 9 10 11 12 13 14 15 16 17 18 19 20 21 22 23 24 25 26 27 28 29 30 31 32 33 34 35 36
000
FTUS44 KHGX 271458 AAA
TAFLBX
TAF AMD
KLBX 271458Z 2715/2812 16009KT P6SM BKN010 BKN025
     FM271900 17009G19KT P6SM SCT025 BKN035
     FM280200 16009KT P6SM BKN020 OVC030
     FM280600 17008KT P6SM OVC015=

USA.gov is the U.S. government's official web portal to all federal, state and local government web resources and services.